Regional Weather Roundup
Issued by NWS Cleveland, OH

Home | Current Version | Previous Version | Graphics & Text | Print | Product List | Glossary On
Versions: 1 2 3 4 5 6 7 8 9 10 11 12 13 14 15 16 17 18 19 20 21 22 23 24 25 26 27 28 29 30 31 32 33 34 35 36 37 38 39 40 41 42 43 44 45 46 47 48 49 50
051
ASUS41 KCLE 210702
RWRCLE
OHIO REGIONAL WEATHER ROUNDUP
NATIONAL WEATHER SERVICE CLEVELAND, OH
200 AM EST SUN JAN 21 2018

NOTE: "FAIR" INDICATES FEW OR NO CLOUDS BELOW 12,000 FEET WITH NO
SIGNIFICANT WEATHER AND/OR OBSTRUCTIONS TO VISIBILITY.

OHZ001>008-015>018-024>027-034-035-043-044-210800-
   NORTHWEST OHIO

CITY           SKY/WX    TMP DP  RH WIND       PRES   REMARKS
DEFIANCE       CLOUDY    37  35  92 SW5       30.05S FOG
FINDLAY        CLOUDY    38  33  82 S8        30.05F
TOLEDO EXPRESS CLOUDY    38  38 100 SW6       30.06R FOG
TOLEDO EXEC    CLOUDY    37  35  92 SW3       30.07S FOG
LIMA           CLOUDY    39  31  72 S10       30.05F HAZE
$$

OHZ009>014-019>023-028>033-038-089-210800-
   NORTHEAST OHIO

CITY           SKY/WX    TMP DP  RH WIND       PRES   REMARKS
CLE-HOPKINS    CLOUDY    40  34  79 S5        30.11R
CLE-LAKEFRONT  CLOUDY    41  34  76 SW9       30.08R
CUY CO. ARPT   NOT AVBL
LORAIN-ELYRIA  CLOUDY    37  30  75 CALM      30.08S
ASHTABULA      CLOUDY    37  32  82 S3        30.09R
AKRON-CANTON   CLOUDY    39  30  70 SW8       30.08S
WOOSTER        CLOUDY    39  32  76 SW8       30.09R
MANSFIELD      CLOUDY    40  36  86 SW8       30.07S
YOUNGSTOWN     CLOUDY    39  31  72 S5        30.08S
$$

OHZ042-051>053-060>062-070>072-077>081-210800-
  SOUTHWEST OHIO

CITY           SKY/WX    TMP DP  RH WIND       PRES   REMARKS
CINC-COVINGTON CLOUDY    47  43  86 SW6       30.09S
CINC-LUNKEN    CLOUDY    40  39  97 CALM      30.12R
HAMILTON       CLOUDY    42  42 100 CALM      30.11S FOG
DAYTON         DRZL/FOG  39  39 100 S6        30.09S VSB 1/4
WRIGHT-PAT AFB CLOUDY    40  40 100 SE3       30.09S FOG
DAYTON GENERAL LGT RAIN  41  41 100 S7        30.08S FOG
WILMINGTON     FOG       37  37 100 S3        30.10R VSB 1/2
$$

OHZ036-037-039>041-045>050-054>059-063>069-073>076-082>088-210800-
  CENTRAL AND SOUTHEAST OHIO

CITY           SKY/WX    TMP DP  RH WIND       PRES   REMARKS
COLUMBUS       LGT RAIN  39  39 100 CALM      30.11S FOG
OSU AIRPORT    LGT RAIN  38  38 100 S6        30.10S FOG
BOLTON FIELD   LGT RAIN  38  38 100 CALM      30.11S VSB 3/4
RICKENBACK AFB NOT AVBL
NEWARK         CLOUDY    39  37  92 CALM      30.11S FOG
MARION         CLOUDY    38  35  89 S5        30.08S
LANCASTER      FOG       36  36 100 CALM      30.12S VSB 1/2
ZANESVILLE     CLOUDY    39  37  92 S5        30.13S FOG
NEW PHILLY     NOT AVBL
$$




USA.gov is the U.S. government's official web portal to all federal, state and local government web resources and services.